TimeEDT,TemperatureF,Dew PointF,Humidity,Sea Level PressureIn,VisibilityMPH,Wind Direction,Wind SpeedMPH,Gust SpeedMPH,PrecipitationIn,Events,Conditions,WindDirDegrees,DateUTC
12:53 AM,57.9,51.1,78,30.19,10.0,NNE,5.8,-,N/A,,Clear,20,2013-08-24 04:53:00
1:53 AM,57.9,52.0,81,30.19,10.0,NNE,6.9,-,N/A,,Clear,20,2013-08-24 05:53:00
2:53 AM,55.9,52.0,87,30.21,10.0,NNE,3.5,-,N/A,,Clear,30,2013-08-24 06:53:00
3:53 AM,53.1,50.0,89,30.23,10.0,Calm,Calm,-,N/A,,Clear,0,2013-08-24 07:53:00
4:53 AM,55.9,48.0,75,30.24,10.0,ENE,8.1,-,N/A,,Clear,70,2013-08-24 08:53:00
5:53 AM,55.9,46.0,69,30.26,10.0,ENE,4.6,-,N/A,,Clear,60,2013-08-24 09:53:00
6:53 AM,55.0,46.0,72,30.28,10.0,NE,8.1,-,N/A,,Clear,50,2013-08-24 10:53:00
7:53 AM,59.0,45.0,60,30.30,10.0,ENE,8.1,-,N/A,,Clear,70,2013-08-24 11:53:00
8:53 AM,63.0,46.0,54,30.32,10.0,ENE,8.1,-,N/A,,Clear,60,2013-08-24 12:53:00
9:53 AM,64.9,46.9,52,30.33,10.0,ENE,10.4,-,N/A,,Clear,60,2013-08-24 13:53:00
10:53 AM,68.0,46.9,47,30.34,10.0,NE,5.8,-,N/A,,Clear,50,2013-08-24 14:53:00
11:53 AM,69.1,44.1,40,30.33,10.0,Variable,5.8,-,N/A,,Clear,0,2013-08-24 15:53:00
12:53 PM,70.0,46.0,42,30.33,10.0,NW,4.6,-,N/A,,Clear,320,2013-08-24 16:53:00
1:53 PM,73.0,46.0,38,30.32,10.0,Variable,3.5,-,N/A,,Clear,0,2013-08-24 17:53:00
2:53 PM,73.0,44.1,35,30.32,10.0,Variable,3.5,-,N/A,,Clear,0,2013-08-24 18:53:00
3:53 PM,73.9,44.1,34,30.32,10.0,Variable,5.8,-,N/A,,Clear,0,2013-08-24 19:53:00
4:53 PM,73.0,46.0,38,30.32,10.0,SE,6.9,-,N/A,,Clear,130,2013-08-24 20:53:00
5:53 PM,72.0,46.9,41,30.33,10.0,SE,6.9,-,N/A,,Clear,130,2013-08-24 21:53:00
6:53 PM,69.1,51.1,53,30.34,10.0,SE,6.9,-,N/A,,Clear,130,2013-08-24 22:53:00
7:53 PM,64.0,52.0,65,30.35,10.0,Calm,Calm,-,N/A,,Clear,0,2013-08-24 23:53:00
8:53 PM,57.9,52.0,81,30.38,10.0,Calm,Calm,-,N/A,,Clear,0,2013-08-25 00:53:00
9:53 PM,54.0,51.1,90,30.39,10.0,Calm,Calm,-,N/A,,Clear,0,2013-08-25 01:53:00
10:53 PM,52.0,50.0,93,30.39,10.0,Calm,Calm,-,N/A,,Clear,0,2013-08-25 02:53:00
11:53 PM,52.0,48.0,86,30.39,10.0,Calm,Calm,-,N/A,,Clear,0,2013-08-25 03:53:00